Location: Bodest
(46.3000°N, 22.5667°E)
Time: 11:59:26
(UTC+00:00)

Cosmos 1626 Rocket - Pass Details

Date: 25 May 2022
Orbit: 602 x 631 km, 82.5° (Epoch: 01 July)

Event Time Altitude Azimuth Distance (km) Brightness Sun altitude
Rises 01:55:31 0° 163° (SSE) 2,894 6.7 -7.9°
Reaches altitude 10° 01:57:54 10° 154° (SSE) 1,988 6.0 -7.6°
Maximum altitude 02:01:50 33° 91° (E) 1,052 5.3 -7.1°
Drops below altitude 10° 02:05:46 10° 27° (NNE) 1,987 7.4 -6.5°
Sets 02:08:09 0° 18° (NNE) 2,892 8.1 -6.2°
